Voltar ao catálogo

DELTA 1 DEB *

AtivoLEO
NORAD 10519·DEBRIS·🇺🇸 United States

Lançado Dec 15, 1977 de Cape Canaveral Space Force Station

Loading…

Próximas Passagens (próximas 24 horas)

TLE

AtualizadoSource: Space-Track

Época: Sep 14, 2026, 00:02 UTC

1 10519U 77118C   26257.00151994  .00000324  00000-0  67042-4 0  9993
2 10519  29.0565 244.0798 0811314 171.5633 189.9511 13.30756784348129

Acompanhe DELTA 1 DEB * em tempo real com AllMySat

Download on the App Store